User: anonymous   Login
Location: Unspecified
(0.0000°N, 0.0000°E)
Time: 22:30:12
(UTC+00:00)
Language:

deb r/b Ablestar - Orbit

View from above orbital plane
View from above orbital plane
View from above satellite
View from above satellite

Ground track
Ground track

The orbit data is extracted from the following two-line orbital elements,

1   335U 61015DM  17085.90155559 +.00000462 +00000-0 +26987-3 0  9991
2   335 066.8408 088.6826 0034749 148.1400 212.1805 14.16715824849423
Epoch (UTC): 26 March 2017 21:38:14
Eccentricity: 0.0034749
inclination: 66.8408°
perigee height: 811 km
apogee height: 861 km
right ascension of ascending node: 88.6826°
argument of perigee: 148.1400°
revolutions per day: 14.16715824
mean anomaly at epoch: 212.1805°
orbit number at epoch: 84942

The dashed part of the orbit path shows where the satellite is in the earth's shadow,  

DLR